Location: �chenoz-la-M�line
(47.6009°N, 6.1354°E)
Time: 03:49:25
(UTC+00:00)

BREEZE M DEB (TANK) - Pass Details

Date: 27 January 2021
Orbit: 283 x 14500 km, 49.5° (Epoch: 27 February)

Event Time Altitude Azimuth Distance (km) Brightness Sun altitude
Exits shadow 06:09:23 - 239° (WSW) 1,356 3.9 -10.0°
Reaches altitude 10° 06:09:35 10° 238° (WSW) 1,252 3.8 -10.0°
Maximum altitude 06:11:52 67° 155° (SSE) 500 2.3 -9.6°
Drops below altitude 10° 06:17:06 10° 72° (ENE) 2,817 6.8 -8.8°
Sets 06:21:54 0° 71° (ENE) 5,096 8.2 -8.0°
